Location: Mascot Post Office (historical)
(40.2645°N, 99.5462°W)
Time: 02:41:49
(UTC+00:00)

SPOT 5 - Pass Details

Date: 14 July 2020
Orbit: 622 x 815 km, 98.3° (Epoch: 14 August)

Event Time Altitude Azimuth Distance (km) Brightness Sun altitude
Exits shadow 05:21:08 22° 243° (WSW) 1,519 4.4 -25.2°
Maximum altitude 05:22:15 24° 264° (W) 1,434 4.5 -25.3°
Drops below altitude 10° 05:26:04 10° 319° (NW) 2,140 6.2 -25.5°
Sets 05:28:38 0° 333° (NNW) 3,027 7.4 -25.7°
